Location: Unspecified
(0.0000°N, 0.0000°E)
Time: 03:05:51
(UTC+00:00)

CUTE-I - Pass Details

Date: 11 December 2017
Orbit: 811 x 825 km, 98.7° (Epoch: 21 June)

Event Time Altitude Azimuth Distance (km) Brightness Sun altitude
Rises 04:53:23 0° 48° (NE) 3,322 ? -13.7°
Reaches altitude 10° 04:56:54 10° 72° (ENE) 2,392 ? -12.9°
Maximum altitude 04:59:35 14° 103° (ESE) 2,115 ? -12.3°
Drops below altitude 10° 05:02:16 10° 134° (SE) 2,395 ? -11.7°
Sets 05:05:45 0° 158° (SSE) 3,329 ? -10.9°
